STARLINK-38423, 100624

Orbit data source: Space-Track

STARLINK-38423, 100624 is a payload satellite owned by SpaceX/Seattle (US) in LEO that was launched on Sun, 06 Sep 2026 UTC launched from the Air Force Western Test Range (AFWTR). Payload-class satellites include a variety of spacecraft equipped with specific instruments for various scientific and technological missions. These include communications satellites like Starlink; space stations such as the ISS; scientific satellites like the Hubble; Earth observation satellites from companies like Planet Labs, Umbra, and HawkEye 360; GPS; miniature CubeSats for education and research; and military/defense satellites.

Not visible in the next 10 days
Identifier
100624, 2026-204K
Orbit
LEO
Country
Flag of USUS
Related business
Manufacturer
SpaceX/Seattle
Mission
Operational spacecraft
Bus & Motor
STARLINK V2MO, Unknown motor
Mass
575 kg wet, ~530 kg dry
Launch date (UTC)
2026-09-06 (5 days ago)
Launch vehicle
Unknown
Launch site
Air Force Western Test Range (AFWTR)
Object type
Payload
Rocket body
Debris
Shape & HBR
BOX + PAN, 17.7 m
Radar Cross Section
RCS unknown

Expand to show TLE details & history
Last TLE update: 21 hours ago

TLE from 21 hours ago
0 STARLINK-38423
1 A0624U          26253.56535266 -.00908210  28393-3 -15156-2 0  9998
2 A0624  69.9970 266.2360 0005500 272.2298  87.8285 16.02698219   643
Epoch: 2026-09-10T13:34Z
TLE epoch observation values (Epoch: 2026-09-10T13:34:06.469Z)
Latitude
Longitude
73.10781°
Altitude
269.348 km
Speed
7.746 km/s
True Right ascension
17h 44m 56s
True Declination
0° 00' 00"
Sunlit
Object was in daylight at epoch
Visualization orbit readout
Latitude
Unknown
Longitude
Unknown
Altitude
Unknown
Speed
Unknown
Apparent Right ascension
Unknown
Apparent Declination
Unknown
Sunlit
N/A
Visualization observer readout
Local Sidereal Time
02:30:12
Azimuth
Unknown
Elevation
Unknown
Doppler factor
Unknown
Orbital elements
Apogee altitude
268.458 km
Perigee altitude
261.15 km
Semi-major axis
6,642.941 km
Eccentricity
0.00055
Inclination
69.997°
RAAN
266.236°
Arg. of periapsis
272.2298°
True anomaly
87.89148°
Mean anomaly
87.8285°
Eccentric anomaly
87.85999°
Mean motion
4.00869 °/min
Orbital period
89.8 mins
BSTAR
-0.0015156
Loading maneuver chart data...
Computing Atmospheric mass density...
Loading historical data...
Loading historical data...
Loading historical data...
Loading historical data...
Loading historical data...
Loading historical data...
Loading historical data...

Documentation

Showing up to 5 results
|